Temp
-13 -13 -13 -13 -13 -13 -13 -13 -13 -13 -13 -13 -13 -13 -13 -13 -13 -13 -13 -12 -12 -12 -12 -12 -12 -12 -12 -12 -12 -12 -12 -13 -13 -13 -13 -14 -14 -14 -13 -13 -13 -14
-13 -13 -13 -13 -13 -13 -13 -13 -13 -13 -13 -13 -13 -13 -13 -13 -13 -13 -13 -13 -13 -12 -12 -12 -12 -12 -12 -12 -12 -12 -12 -13 -13 -13 -13 -14 -14 -14 -14 -14 -13 -13
-14 -13 -13 -13 -13 -13 -13 -13 -13 -13 -13 -13 -13 -13 -13 -13 -13 -13 -13 -13 -13 -13 -13 -13 -13 -13 -12 -12 -12 -12 -12 -13 -13 -13 -13 -13 -14 -14 -14 -14 -14 -14
-14 -14 -14 -14 -13 -13 -13 -13 -13 -13 -13 -13 -13 -13 -13 -13 -13 -13 -13 -13 -13 -13 -13 -13 -13 -13 -13 -13 -13 -12 -12 -12 -13 -13 -13 -13 -14 -14 -14 -14 -14 -14
-14 -14 -14 -14 -14 -14 -14 -13 -13 -13 -13 -13 -13 -13 -13 -13 -13 -13 -13 -13 -13 -13 -13 -13 -13 -13 -13 -13 -13 -12 -12 -12 -13 -13 -13 -13 -14 -14 -14 -14 -14 -14
-14 -14 -14 -14 -14 -14 -14 -14 -14 -13 -13 -13 -13 -13 -13 -13 -13 -13 -13 -13 -13 -13 -13 -13 -13 -13 -13 -13 -13 -13 -12 -13 -13 -13 -13 -13 -13 -14 -14 -14 -14 -14
-14 -14 -14 -14 -14 -14 -14 -14 -14 -14 -13 -13 -13 -14 -14 -14 -14 -14 -13 -13 -13 -13 -13 -13 -13 -13 -13 -13 -13 -13 -13 -13 -13 -13 -13 -13 -13 -13 -14 -14 -14 -14
-15 -14 -14 -14 -14 -14 -14 -14 -14 -14 -14 -14 -14 -14 -14 -14 -14 -14 -14 -14 -13 -13 -13 -13 -13 -13 -13 -13 -13 -13 -13 -13 -13 -13 -13 -13 -13 -13 -14 -14 -14 -14
-15 -14 -14 -15 -15 -15 -14 -14 -14 -14 -14 -14 -14 -14 -14 -14 -14 -14 -14 -14 -14 -14 -13 -13 -13 -13 -13 -13 -13 -13 -13 -13 -13 -13 -13 -13 -13 -13 -14 -14 -14 -14
-15 -15 -15 -15 -15 -15 -14 -14 -14 -14 -14 -14 -14 -14 -14 -14 -14 -14 -14 -14 -14 -14 -14 -14 -13 -13 -13 -13 -13 -13 -13 -13 -13 -13 -13 -13 -13 -13 -13 -14 -14 -14
-15 -15 -15 -15 -15 -15 -15 -14 -14 -14 -14 -14 -14 -14 -14 -14 -14 -14 -14 -14 -14 -14 -14 -14 -14 -14 -14 -14 -14 -13 -13 -13 -13 -13 -13 -13 -13 -13 -13 -13 -13 -14
-15 -15 -15 -15 -15 -15 -15 -15 -14 -14 -14 -14 -14 -14 -14 -14 -14 -14 -14 -14 -14 -14 -14 -14 -14 -14 -14 -14 -14 -14 -14 -14 -14 -14 -14 -13 -13 -13 -14 -13 -13 -13
-15 -15 -15 -15 -15 -15 -15 -15 -14 -14 -14 -14 -14 -15 -15 -15 -15 -15 -15 -15 -15 -15 -15 -14 -14 -14 -14 -14 -14 -14 -14 -14 -14 -14 -14 -14 -14 -14 -14 -14 -14 -14
-16 -16 -16 -15 -15 -15 -15 -15 -15 -15 -15 -15 -15 -15 -15 -15 -15 -15 -15 -15 -15 -15 -15 -15 -15 -15 -15 -14 -14 -14 -14 -14 -14 -14 -14 -14 -14 -14 -14 -14 -14 -14
-16 -16 -16 -15 -15 -15 -15 -15 -15 -15 -15 -15 -15 -15 -15 -15 -15 -15 -15 -15 -15 -15 -15 -15 -15 -15 -15 -15 -15 -15 -15 -15 -15 -15 -15 -14 -14 -14 -14 -14 -14 -14
-16 -16 -16 -16 -15 -15 -15 -15 -15 -15 -15 -15 -15 -15 -15 -15 -15 -15 -15 -15 -15 -15 -15 -16 -15 -15 -15 -15 -15 -15 -15 -15 -15 -15 -15 -15 -15 -15 -15 -15 -14 -14
-16 -16 -16 -16 -16 -15 -15 -15 -15 -16 -16 -16 -16 -16 -16 -16 -16 -16 -16 -16 -16 -16 -16 -16 -16 -16 -16 -16 -16 -15 -15 -15 -15 -15 -15 -15 -15 -15 -15 -15 -15 -15
-16 -16 -16 -16 -16 -16 -16 -16 -16 -16 -16 -16 -16 -16 -16 -16 -16 -16 -16 -16 -16 -16 -16 -16 -16 -16 -16 -16 -16 -16 -16 -16 -16 -16 -16 -16 -16 -15 -15 -15 -15 -15
-16 -16 -16 -16 -16 -16 -16 -16 -16 -16 -16 -16 -16 -16 -16 -16 -16 -16 -16 -16 -16 -16 -16 -16 -16 -16 -16 -16 -16 -16 -16 -16 -16 -16 -16 -16 -16 -16 -16 -16 -15 -15
-16 -16 -16 -16 -16 -16 -16 -16 -16 -16 -16 -16 -16 -16 -16 -16 -16 -16 -17 -17 -17 -17 -17 -17 -16 -16 -16 -16 -16 -16 -16 -16 -16 -16 -16 -16 -16 -16 -16 -16 -16 -16
-17 -16 -16 -16 -16 -16 -16 -16 -16 -16 -16 -16 -16 -16 -17 -17 -17 -17 -17 -17 -17 -17 -17 -17 -17 -17 -17 -16 -16 -16 -16 -16 -16 -16 -16 -16 -16 -16 -16 -16 -16 -16
-17 -17 -16 -17 -17 -17 -17 -17 -17 -17 -17 -17 -17 -17 -17 -17 -17 -17 -17 -17 -17 -17 -17 -17 -17 -17 -17 -17 -17 -17 -17 -17 -17 -17 -17 -17 -17 -17 -17 -17 -16 -16
-17 -17 -17 -17 -17 -17 -17 -17 -17 -17 -17 -17 -17 -17 -17 -17 -17 -17 -17 -17 -17 -17 -17 -17 -17 -17 -17 -17 -17 -17 -17 -17 -17 -17 -17 -17 -17 -17 -17 -17 -17 -17
-17 -17 -17 -17 -17 -17 -17 -17 -17 -17 -17 -17 -17 -17 -17 -17 -17 -17 -17 -17 -17 -17 -17 -17 -17 -17 -17 -17 -17 -17 -17 -17 -17 -17 -17 -17 -17 -17 -17 -17 -17 -17
-17 -17 -17 -17 -17 -17 -17 -17 -17 -17 -17 -17 -17 -17 -17 -17 -17 -17 -17 -17 -17 -17 -17 -17 -17 -17 -17 -18 -18 -18 -18 -18 -18 -18 -18 -18 -18 -18 -18 -18 -18 -18
-17 -17 -18 -18 -17 -17 -17 -17 -17 -17 -17 -17 -17 -17 -17 -17 -17 -17 -17 -17 -17 -17 -18 -18 -18 -18 -18 -18 -18 -18 -18 -18 -18 -18 -18 -18 -18 -18 -18 -18 -18 -18
Height
5807 5806 5806 5805 5805 5804 5803 5803 5802 5800 5799 5798 5797 5795 5794 5793 5791 5790 5788 5787 5785 5783 5781 5779 5777 5774 5771 5767 5763 5759 5754 5750 5745 5741 5738 5735 5732 5730 5729 5728 5728 5728
5805 5805 5804 5804 5803 5802 5801 5800 5799 5797 5796 5795 5794 5793 5791 5790 5788 5787 5786 5784 5782 5781 5779 5776 5774 5772 5768 5765 5761 5758 5753 5749 5744 5740 5737 5734 5732 5730 5728 5728 5727 5727
5803 5803 5802 5802 5801 5800 5798 5797 5796 5794 5793 5792 5791 5790 5788 5787 5786 5785 5783 5782 5780 5778 5776 5774 5772 5769 5766 5763 5760 5756 5752 5748 5743 5739 5736 5733 5731 5729 5728 5727 5727 5727
5801 5801 5800 5799 5798 5797 5795 5794 5793 5792 5791 5790 5789 5787 5786 5784 5783 5782 5781 5779 5778 5776 5774 5772 5769 5767 5764 5761 5758 5755 5751 5747 5742 5738 5735 5733 5731 5729 5728 5727 5726 5726
5799 5798 5797 5796 5795 5794 5793 5791 5790 5789 5788 5787 5786 5784 5783 5782 5780 5779 5778 5777 5775 5773 5771 5769 5767 5764 5762 5759 5756 5753 5750 5746 5742 5738 5735 5732 5731 5729 5727 5726 5725 5725
5796 5795 5794 5793 5792 5791 5790 5789 5788 5787 5786 5784 5783 5782 5780 5779 5778 5777 5775 5774 5773 5771 5769 5767 5764 5762 5760 5757 5755 5752 5748 5745 5741 5738 5735 5732 5730 5728 5727 5726 5725 5724
5792 5792 5791 5790 5790 5789 5788 5787 5786 5785 5783 5782 5780 5779 5778 5776 5775 5774 5773 5771 5770 5768 5766 5764 5762 5760 5758 5755 5753 5750 5747 5744 5741 5738 5735 5732 5730 5728 5726 5725 5724 5723
5790 5789 5789 5788 5787 5787 5786 5785 5784 5782 5781 5779 5778 5776 5775 5774 5772 5771 5770 5768 5767 5766 5764 5762 5760 5758 5755 5753 5751 5748 5746 5743 5740 5737 5735 5732 5729 5727 5726 5724 5723 5722
5787 5787 5786 5785 5785 5784 5783 5782 5781 5779 5778 5776 5775 5773 5772 5771 5769 5768 5767 5765 5764 5763 5761 5759 5757 5755 5753 5751 5749 5746 5744 5742 5740 5737 5734 5731 5729 5727 5725 5723 5722 5720
5785 5784 5784 5783 5782 5782 5781 5780 5778 5777 5775 5773 5772 5771 5769 5768 5767 5765 5764 5762 5761 5760 5758 5757 5755 5753 5751 5749 5747 5745 5742 5740 5738 5736 5733 5731 5728 5726 5724 5722 5721 5719
5782 5782 5781 5780 5780 5779 5778 5777 5775 5774 5772 5771 5769 5768 5766 5765 5764 5763 5761 5760 5758 5757 5755 5754 5752 5750 5748 5746 5745 5743 5740 5738 5736 5734 5732 5730 5727 5725 5723 5722 5720 5718
5780 5779 5778 5777 5777 5776 5775 5774 5772 5771 5770 5768 5767 5765 5764 5762 5761 5760 5758 5757 5755 5754 5753 5751 5749 5747 5746 5744 5742 5740 5738 5736 5734 5732 5730 5728 5726 5724 5722 5720 5719 5717
5777 5776 5776 5775 5774 5773 5772 5771 5770 5768 5767 5765 5764 5762 5761 5759 5758 5757 5755 5754 5752 5751 5750 5748 5746 5744 5743 5741 5739 5737 5736 5733 5731 5729 5728 5726 5725 5723 5721 5719 5717 5716
5774 5774 5773 5773 5772 5771 5769 5768 5767 5765 5764 5762 5761 5759 5758 5757 5755 5754 5752 5751 5749 5748 5746 5745 5743 5741 5740 5738 5736 5735 5733 5731 5729 5727 5725 5724 5722 5721 5719 5718 5716 5714
5772 5772 5771 5770 5769 5768 5766 5765 5763 5762 5760 5759 5758 5756 5755 5754 5752 5751 5749 5748 5746 5745 5743 5742 5740 5738 5736 5735 5733 5732 5730 5728 5726 5724 5723 5721 5719 5718 5717 5716 5714 5712
5770 5769 5768 5767 5766 5764 5763 5761 5760 5759 5757 5756 5755 5753 5752 5751 5749 5748 5747 5745 5743 5742 5740 5739 5737 5735 5733 5732 5730 5729 5727 5725 5724 5722 5720 5719 5717 5715 5714 5713 5712 5710
5767 5766 5765 5764 5763 5761 5760 5758 5757 5756 5754 5753 5752 5750 5749 5747 5746 5745 5743 5742 5740 5739 5737 5736 5734 5732 5730 5729 5727 5725 5724 5722 5721 5719 5718 5716 5715 5713 5711 5710 5709 5708
5764 5763 5762 5761 5760 5758 5757 5755 5754 5752 5751 5749 5748 5747 5745 5744 5743 5741 5740 5739 5737 5736 5734 5732 5731 5729 5727 5726 5724 5722 5721 5719 5718 5716 5715 5713 5712 5711 5709 5708 5707 5705
5761 5760 5759 5758 5757 5755 5754 5752 5751 5749 5747 5746 5745 5743 5742 5741 5739 5738 5736 5735 5734 5732 5731 5729 5728 5726 5725 5723 5721 5719 5718 5716 5715 5713 5712 5710 5709 5708 5706 5705 5704 5702
5758 5757 5756 5755 5753 5752 5750 5749 5747 5745 5744 5743 5741 5740 5738 5737 5736 5735 5733 5732 5730 5729 5728 5726 5725 5723 5722 5720 5718 5717 5715 5713 5712 5710 5709 5707 5706 5704 5703 5701 5700 5699
5755 5754 5752 5751 5750 5748 5747 5745 5743 5742 5741 5739 5738 5737 5735 5734 5733 5731 5730 5729 5727 5726 5725 5723 5722 5720 5718 5717 5715 5713 5712 5710 5708 5707 5705 5704 5702 5701 5699 5698 5696 5695
5751 5750 5749 5747 5746 5745 5743 5742 5740 5739 5737 5736 5735 5733 5732 5731 5730 5728 5727 5726 5724 5723 5722 5720 5719 5717 5715 5714 5712 5710 5708 5706 5705 5703 5701 5700 5698 5697 5695 5694 5692 5690
5748 5747 5745 5744 5743 5741 5740 5738 5737 5736 5734 5733 5732 5730 5729 5728 5727 5726 5724 5723 5721 5720 5718 5717 5715 5713 5711 5710 5708 5706 5704 5702 5701 5699 5697 5695 5694 5692 5691 5689 5688 5686
5744 5743 5742 5741 5739 5738 5737 5735 5734 5733 5732 5730 5729 5727 5726 5725 5724 5723 5722 5720 5718 5717 5715 5713 5711 5709 5707 5705 5704 5702 5700 5698 5696 5694 5693 5691 5689 5687 5686 5684 5683 5681
5740 5739 5738 5737 5736 5735 5734 5733 5731 5730 5729 5727 5726 5725 5724 5722 5721 5720 5718 5717 5715 5713 5711 5709 5707 5705 5703 5702 5700 5698 5696 5694 5692 5690 5688 5687 5685 5683 5681 5679 5677 5676
5737 5736 5735 5734 5733 5732 5731 5730 5729 5727 5726 5724 5723 5722 5721 5719 5718 5717 5715 5713 5712 5710 5708 5706 5704 5702 5700 5698 5696 5694 5692 5690 5688 5686 5684 5682 5680 5678 5676 5674 5673 5671
Wind_Speed
22 23 24 24 24 24 23 22 22 22 22 22 23 23 23 23 24 25 25 26 26 27 28 29 30 32 34 35 36 37 37 36 33 31 30 28 25 23 21 18 16 16
22 23 24 24 24 24 23 22 22 23 23 23 23 23 24 24 24 25 25 26 26 27 28 29 30 31 33 35 35 36 36 35 33 31 27 25 24 22 20 17 16 16
22 23 24 24 24 23 23 23 23 24 24 24 24 24 24 24 25 25 25 26 26 27 27 28 29 30 32 33 34 34 34 34 33 31 27 23 21 20 18 16 14 15
23 24 24 24 24 24 24 24 24 24 25 25 24 25 25 25 25 25 26 26 27 27 27 28 29 30 31 32 33 33 33 34 33 32 28 24 21 18 16 14 13 14
24 25 25 25 25 25 25 25 25 25 25 25 25 25 25 25 25 25 26 27 27 27 27 28 29 30 30 31 32 32 32 33 33 32 30 26 22 18 15 14 14 14
25 26 26 26 26 26 25 25 26 26 26 25 25 25 25 25 25 26 26 27 28 28 28 28 29 30 30 30 31 31 31 31 31 31 30 28 24 20 18 16 16 15
27 27 28 28 27 26 26 26 26 26 25 25 25 25 26 26 26 26 26 27 27 28 28 29 29 30 30 30 30 30 29 29 29 29 29 28 26 23 21 19 17 17
28 28 29 29 27 27 27 27 27 26 26 26 26 26 26 26 26 26 26 27 27 28 28 29 30 30 31 31 31 30 29 28 28 28 27 27 26 24 22 21 19 18
29 29 30 29 28 28 28 28 27 27 27 27 26 26 26 26 26 26 26 27 27 28 29 29 30 30 31 31 31 31 29 27 26 27 27 26 26 25 23 22 21 20
30 30 30 30 30 29 29 28 28 28 27 27 27 27 27 26 26 26 26 27 27 28 29 30 31 31 31 31 31 31 30 28 26 25 25 25 25 25 23 22 21 20
31 31 31 31 31 30 30 29 29 28 28 28 28 27 27 27 27 26 26 26 27 28 29 30 31 32 32 32 32 31 30 29 27 25 24 24 24 24 24 23 21 20
31 31 32 32 32 32 31 30 30 29 29 28 28 27 27 27 27 26 26 26 27 28 29 30 31 31 32 32 32 31 30 30 29 26 24 23 23 23 24 23 22 21
32 32 33 33 33 33 32 31 30 29 28 28 27 27 26 26 26 26 27 27 27 28 29 30 31 31 31 31 31 30 30 29 28 27 25 23 22 22 23 23 23 22
32 33 34 34 34 34 32 31 30 29 28 27 27 26 26 26 26 26 27 27 28 28 29 29 31 31 31 31 30 30 29 28 27 27 26 24 22 21 21 22 23 22
32 33 34 34 34 33 32 31 30 29 28 27 26 26 26 26 26 27 27 27 28 28 28 29 30 31 31 30 30 29 28 27 26 25 25 25 24 22 21 21 22 23
33 33 33 33 33 33 31 30 29 28 27 26 26 25 26 26 27 27 27 28 28 29 29 29 29 30 30 30 29 28 27 26 25 24 23 24 24 24 23 22 22 23
33 33 33 33 33 32 31 30 29 28 27 26 26 26 26 26 27 27 27 28 28 29 29 29 30 30 30 29 29 28 27 26 25 25 24 23 24 24 24 24 23 23
33 33 33 33 33 32 31 29 28 28 27 27 27 27 27 28 28 28 28 28 29 30 30 30 29 29 29 28 28 27 27 26 26 26 25 25 25 24 25 25 25 24
33 33 32 33 32 31 30 29 28 28 28 28 28 29 29 29 29 29 29 30 30 30 30 30 29 28 28 28 27 27 27 26 26 26 26 26 26 26 26 26 26 26
32 32 32 32 32 31 30 29 29 28 28 29 29 29 29 30 30 30 30 30 30 30 29 29 28 28 27 27 27 27 27 27 27 28 28 28 28 28 28 28 27 27
32 32 32 32 31 30 29 29 28 28 28 29 29 29 29 29 29 30 30 29 29 29 28 28 27 27 27 27 27 28 28 29 29 30 30 30 30 30 30 30 29 29
32 32 32 31 30 29 28 28 28 28 28 29 29 28 29 29 29 29 28 28 27 27 27 27 27 27 28 28 29 29 30 31 31 31 32 32 31 31 31 31 31 31
32 31 30 29 28 28 27 27 27 28 27 27 27 27 27 27 27 27 26 26 27 27 27 28 29 30 30 30 31 31 32 32 32 32 33 33 33 33 33 33 33 33
31 30 28 27 27 26 26 26 26 25 25 24 24 24 25 25 26 26 26 27 28 29 30 30 31 31 31 31 31 31 31 31 32 32 33 33 33 33 33 33 33 33
29 28 27 26 26 25 25 24 24 24 24 24 24 25 25 26 27 27 28 29 30 31 31 31 31 31 30 31 31 31 31 32 32 32 33 33 34 34 34 34 34 34
27 26 25 25 25 24 24 24 24 24 24 25 26 26 27 28 29 30 30 31 31 30 30 29 29 30 30 30 31 31 31 31 31 31 31 31 31 32 32 33 33 34
Wind_Direction
296 297 299 301 303 303 301 299 298 299 300 302 306 309 310 310 310 312 314 315 316 317 318 320 323 325 328 332 335 336 338 338 333 326 323 325 325 318 307 295 284 272
295 297 300 301 302 302 302 302 300 300 301 304 307 309 309 309 310 313 314 315 315 316 318 320 323 325 327 332 335 337 339 340 337 331 324 324 325 320 310 300 288 276
295 297 298 299 301 304 306 306 304 303 303 305 306 307 308 310 311 313 314 314 314 315 318 321 324 326 328 332 335 337 340 342 342 339 333 327 327 325 316 306 295 284
293 295 296 299 303 306 308 308 306 305 304 303 304 305 308 310 311 312 313 314 314 315 319 322 325 327 329 331 334 337 340 343 345 345 342 336 331 328 323 313 302 292
292 294 298 302 305 308 309 308 307 305 303 303 304 306 308 310 311 312 313 313 314 315 319 322 325 327 329 330 332 336 340 343 346 347 346 342 334 329 326 318 309 300
293 296 300 303 305 308 309 308 306 303 303 303 306 307 308 310 311 311 311 312 313 315 319 322 324 326 328 329 331 335 339 341 344 346 346 344 340 334 328 321 312 306
295 298 300 302 305 307 309 307 304 303 304 306 307 309 310 310 311 311 310 311 312 314 317 320 322 324 326 328 330 333 337 339 341 344 346 344 342 338 332 324 317 309
297 298 300 302 305 307 307 306 305 306 308 309 311 311 312 312 312 311 310 310 311 313 316 318 320 323 324 326 329 331 334 337 337 340 343 343 342 339 334 328 323 314
296 297 299 303 306 306 306 306 307 310 311 312 313 313 313 313 312 312 311 311 312 313 315 316 318 321 323 325 327 328 330 333 335 336 338 341 341 340 336 331 326 321
294 296 298 303 306 306 306 307 309 311 312 313 313 313 313 313 312 312 312 312 312 313 314 315 316 319 322 323 324 325 326 328 331 332 334 336 338 338 337 334 329 324
292 295 299 303 306 306 306 308 309 310 311 312 313 313 313 313 312 312 312 311 312 313 314 315 316 317 320 322 322 323 323 324 326 328 330 331 333 334 335 335 333 328
292 296 300 304 306 306 306 306 307 309 310 311 313 313 313 313 312 312 311 311 311 312 313 314 315 317 319 319 320 320 321 321 322 325 327 328 329 330 332 332 333 332
293 296 299 303 304 304 304 305 306 307 309 311 312 313 313 312 312 311 310 311 311 312 313 314 315 316 317 317 318 318 319 319 320 322 324 326 326 326 327 329 330 330
292 295 297 299 300 302 303 304 305 307 309 311 312 313 313 312 311 311 311 311 312 312 313 314 315 316 316 316 316 317 318 318 318 319 321 322 323 322 322 325 326 326
291 293 294 296 299 301 303 304 305 307 309 311 312 312 312 311 311 311 311 311 312 312 314 314 315 315 316 316 316 316 317 317 317 318 319 320 320 321 320 320 321 322
290 292 293 296 299 301 303 304 305 307 308 309 310 310 310 311 311 311 311 311 311 312 313 313 314 315 315 316 316 316 316 316 316 316 317 317 318 318 318 318 317 317
289 291 294 297 300 302 302 303 304 306 307 309 310 310 310 310 310 310 310 310 310 310 311 313 314 314 315 316 316 316 316 316 316 316 315 315 315 314 314 315 315 313
289 291 295 298 300 300 301 302 303 305 307 309 310 310 311 310 310 309 309 309 309 310 311 312 313 314 314 315 315 315 316 316 315 315 315 314 313 312 312 312 312 311
288 291 295 298 299 299 300 302 304 306 308 309 309 310 310 309 309 308 308 309 310 311 312 313 313 313 314 314 315 315 315 315 315 314 314 313 312 311 310 309 308 308
289 292 295 297 298 298 300 302 304 306 307 308 308 308 308 308 308 308 309 310 311 312 313 313 314 314 314 314 315 314 314 314 313 312 312 311 310 309 308 307 306 304
290 293 295 296 297 299 301 303 305 306 307 307 307 307 307 307 308 309 310 311 312 313 314 314 314 314 314 314 314 313 313 312 311 310 309 308 307 307 306 305 303 301
291 294 295 296 298 300 303 304 306 307 307 306 306 307 308 309 310 311 312 313 314 314 314 314 314 314 313 313 312 311 310 309 308 307 306 305 304 303 302 302 300 299
291 293 294 297 299 301 304 305 307 308 308 308 309 309 310 311 312 313 314 314 314 314 314 314 313 312 311 310 310 309 308 307 306 305 304 303 302 301 300 298 297 295
290 293 295 298 300 302 305 307 308 310 311 312 313 314 314 315 315 315 315 315 314 314 313 313 312 312 311 311 310 310 309 308 307 306 305 304 303 302 300 298 296 294
291 294 297 299 300 303 306 308 309 311 313 316 317 317 317 317 316 315 315 314 314 314 313 313 313 313 313 313 312 311 311 310 308 307 306 305 304 303 301 299 297 295
292 296 297 298 300 303 306 308 310 312 315 317 318 318 317 316 315 315 314 314 314 314 314 314 314 314 314 314 313 313 312 311 311 310 310 309 308 306 305 303 302 299